Manila, Philippines

7:02 PM PHT on August 27, 2014 (GMT +0800)
Dasmarinas | Change Station
CLOSE
Current Station
Personal Weather Station
Location: Makati, METRO MANILA
Elevation: 49 ft
Nearby Weather Stations

Elev 49 ft 14.55 °N, 121.03 °E | Updated 2 minutes ago

Mostly Cloudy
Mostly Cloudy
83.8 °F
Feels Like 93 °F
N
0.0
Wind Variable Wind from West
Gusts 3.8 mph

Today
High -- | Low -- °F
--% Chance of Precip.
Yesterday
High -- | Low -- °F
Precip. -- in
5:43 AM 6:11 PM
Waxing Crescent, 3% visible
Pressure 29.80 in
Visibility 6.2 miles
Clouds Few 2300 ft
Scattered Clouds 2500 ft
Mostly Cloudy 10000 ft
Heat Index 93 °F
Dew Point 77 °F
Humidity 79%
Rainfall 0.00 in
Snow Depth Not available.
UV 0 out of 12
Pollen Not available.
Air Quality Not available.
Flu Activity Not available.
METAR RPLL 271000Z 29008KT 260V320 9999 FEW023CB SCT025 BKN100 30/26 Q1009 NOSIG RMK A2980 CB N

More Conditions Fewer Conditions

Pressure 29.80 in
Visibility 6.2 miles
Clouds Few 2300 ft
Scattered Clouds 2500 ft
Mostly Cloudy 10000 ft
Heat Index 93 °F
Dew Point 77 °F
Humidity 79%
Rainfall 0.00 in
Snow Depth Not available.
UV 0 out of 12
Pollen Not available.
Air Quality Not available.
Flu Activity Not available.
METAR RPLL 271000Z 29008KT 260V320 9999 FEW023CB SCT025 BKN100 30/26 Q1009 NOSIG RMK A2980 CB N

More Conditions Fewer Conditions

10-Day Weather Forecast

Almanac

Astronomy

Aug. 27, 2014 Rise Set
Actual Time 5:43 AM PHT 6:11 PM PHT
Civil Twilight 5:21 AM PHT 6:33 PM PHT
Nautical Twilight 4:56 AM PHT 6:58 PM PHT
Astronomical Twilight 4:30 AM PHT 7:24 PM PHT
Moon 6:46 AM PHT 7:09 PM PHT
Length of Visible Light 13h 11m
Length of Day
12h 28m
Tomorrow will be 0m 46s shorter.
Waxing Crescent, 3% of the Moon is Illuminated
Today
Waxing Crescent
Sep 2
First Quarter
Sep 8
Full
Sep 15
Last Quarter
Sep 24
New

Yesterday's Extremes

Country Highs Country Lows

Community

WunderPhotos

Upload Photos

1,747,667 photos uploaded!

Nearby

Snow Depth

Not available.

Earthquake Activity

City Distance Mag. Time & Date
No recent earthquake activity has been reported nearby.
Minimum magnitude displayed is 2.5.

Coastal Water Temperatures

Place Temperature
No Stations Reporting

Nearby Weather Stations